Location: Aranbee
(34.0885°N, 118.2342°W)
Time: 17:28:07
(UTC+00:00)

A-11 Canister half - Pass Details

Date: 31 July 2021
Orbit: 1514 x 1685 km, 47.2° (Epoch: 17 September)

Event Time Altitude Azimuth Distance (km) Brightness Sun altitude
Rises 03:29:46 0° 280° (W) 4,839 13.3 -7.3°
Reaches altitude 10° 03:33:12 10° 288° (WNW) 3,876 12.7 -7.9°
Maximum altitude 03:42:21 39° 355° (N) 2,331 10.3 -9.6°
Drops below altitude 10° 03:51:42 10° 62° (ENE) 3,950 10.9 -11.2°
Sets 03:55:15 0° 70° (ENE) 4,940 11.3 -11.9°
